QPF
0.00 0.00 0.00 0.00 0.00 0.00 0.00 0.00 0.00 0.00 0.00 0.00 0.00 0.00 0.00 0.00 0.00 0.00 0.00 0.00 0.00 0.00 0.00 0.00 0.00 0.00 0.00 0.00 0.00 0.00 0.00 0.00 0.00 0.00 0.00 0.00 0.00 0.00 0.00 0.00 0.00 0.00 0.00 0.00 0.00
0.00 0.00 0.00 0.00 0.00 0.00 0.00 0.00 0.00 0.00 0.00 0.00 0.00 0.00 0.00 0.00 0.00 0.00 0.00 0.00 0.00 0.00 0.00 0.00 0.00 0.00 0.00 0.00 0.00 0.00 0.00 0.00 0.00 0.00 0.00 0.00 0.00 0.00 0.00 0.00 0.00 0.00 0.00 0.00 0.00
0.00 0.00 0.00 0.00 0.00 0.00 0.00 0.00 0.00 0.00 0.00 0.00 0.00 0.00 0.00 0.00 0.00 0.00 0.00 0.00 0.00 0.00 0.00 0.00 0.00 0.00 0.00 0.00 0.00 0.00 0.00 0.00 0.00 0.00 0.00 0.00 0.00 0.00 0.00 0.00 0.00 0.00 0.00 0.00 0.01
0.00 0.00 0.00 0.00 0.00 0.00 0.00 0.00 0.00 0.00 0.00 0.00 0.00 0.00 0.00 0.00 0.00 0.00 0.00 0.00 0.00 0.00 0.00 0.00 0.00 0.00 0.00 0.00 0.00 0.00 0.00 0.00 0.00 0.00 0.00 0.00 0.00 0.00 0.00 0.00 0.00 0.00 0.00 0.00 0.00
0.00 0.00 0.00 0.00 0.00 0.00 0.00 0.00 0.00 0.00 0.00 0.00 0.00 0.00 0.00 0.00 0.00 0.00 0.00 0.00 0.00 0.00 0.00 0.00 0.00 0.00 0.00 0.00 0.00 0.00 0.00 0.00 0.00 0.00 0.00 0.00 0.00 0.00 0.00 0.00 0.00 0.00 0.00 0.00 0.00
0.00 0.00 0.00 0.00 0.00 0.00 0.00 0.00 0.00 0.00 0.00 0.00 0.00 0.00 0.00 0.00 0.00 0.00 0.00 0.00 0.00 0.00 0.00 0.00 0.00 0.00 0.00 0.00 0.00 0.00 0.00 0.00 0.00 0.00 0.00 0.00 0.00 0.00 0.00 0.00 0.00 0.00 0.00 0.00 0.00
0.00 0.00 0.00 0.00 0.00 0.00 0.00 0.00 0.00 0.00 0.00 0.00 0.00 0.00 0.00 0.00 0.00 0.00 0.00 0.00 0.00 0.00 0.00 0.00 0.00 0.00 0.00 0.00 0.00 0.00 0.00 0.00 0.00 0.00 0.00 0.00 0.00 0.00 0.00 0.00 0.00 0.00 0.00 0.00 0.00
0.00 0.00 0.00 0.00 0.00 0.00 0.00 0.00 0.00 0.00 0.00 0.00 0.00 0.00 0.00 0.00 0.00 0.00 0.00 0.00 0.00 0.00 0.00 0.00 0.00 0.00 0.00 0.00 0.00 0.00 0.00 0.00 0.00 0.00 0.00 0.00 0.00 0.00 0.00 0.00 0.00 0.00 0.00 0.00 0.00
0.00 0.00 0.00 0.00 0.00 0.00 0.00 0.00 0.00 0.00 0.00 0.00 0.00 0.00 0.00 0.00 0.00 0.00 0.00 0.00 0.00 0.00 0.00 0.00 0.00 0.00 0.00 0.00 0.00 0.00 0.00 0.00 0.00 0.00 0.00 0.00 0.00 0.00 0.00 0.00 0.00 0.00 0.00 0.00 0.00
0.00 0.00 0.00 0.00 0.00 0.00 0.00 0.00 0.00 0.00 0.00 0.00 0.00 0.00 0.00 0.00 0.00 0.00 0.00 0.00 0.00 0.00 0.00 0.00 0.00 0.00 0.00 0.00 0.00 0.00 0.00 0.00 0.00 0.00 0.00 0.00 0.00 0.00 0.00 0.00 0.00 0.00 0.00 0.00 0.00
0.00 0.00 0.00 0.00 0.00 0.00 0.00 0.00 0.00 0.00 0.00 0.00 0.00 0.00 0.00 0.00 0.00 0.00 0.00 0.00 0.00 0.00 0.00 0.00 0.00 0.00 0.00 0.00 0.00 0.00 0.00 0.00 0.00 0.00 0.00 0.00 0.00 0.00 0.00 0.00 0.00 0.00 0.00 0.00 0.00
0.00 0.00 0.00 0.00 0.00 0.00 0.00 0.00 0.00 0.00 0.00 0.00 0.00 0.00 0.00 0.00 0.00 0.00 0.00 0.00 0.00 0.00 0.00 0.00 0.00 0.00 0.00 0.00 0.00 0.00 0.00 0.00 0.00 0.00 0.00 0.00 0.00 0.00 0.00 0.00 0.00 0.00 0.00 0.00 0.00
0.00 0.00 0.00 0.00 0.00 0.00 0.00 0.00 0.00 0.00 0.00 0.00 0.00 0.00 0.00 0.00 0.00 0.00 0.00 0.00 0.00 0.00 0.00 0.00 0.00 0.00 0.00 0.00 0.00 0.00 0.00 0.00 0.00 0.00 0.00 0.00 0.00 0.00 0.00 0.00 0.00 0.00 0.00 0.00 0.00
0.00 0.00 0.00 0.00 0.00 0.00 0.00 0.00 0.00 0.00 0.00 0.00 0.00 0.00 0.00 0.00 0.00 0.00 0.00 0.00 0.00 0.00 0.00 0.00 0.00 0.00 0.00 0.00 0.00 0.00 0.00 0.00 0.00 0.00 0.00 0.00 0.00 0.00 0.00 0.00 0.00 0.00 0.00 0.00 0.00
0.00 0.00 0.00 0.00 0.00 0.00 0.00 0.00 0.00 0.00 0.00 0.00 0.00 0.00 0.00 0.00 0.00 0.00 0.00 0.00 0.00 0.00 0.00 0.00 0.00 0.00 0.00 0.00 0.00 0.00 0.00 0.00 0.00 0.00 0.00 0.00 0.00 0.00 0.00 0.00 0.00 0.00 0.00 0.00 0.00
0.00 0.00 0.00 0.00 0.00 0.00 0.00 0.00 0.00 0.00 0.00 0.00 0.00 0.00 0.00 0.00 0.00 0.00 0.00 0.00 0.00 0.00 0.00 0.00 0.00 0.00 0.00 0.00 0.00 0.00 0.00 0.00 0.00 0.00 0.00 0.00 0.01 0.02 0.05 0.03 0.00 0.00 0.00 0.00 0.00
0.00 0.00 0.00 0.00 0.00 0.00 0.00 0.00 0.00 0.00 0.00 0.00 0.00 0.00 0.00 0.00 0.00 0.00 0.00 0.00 0.00 0.00 0.00 0.00 0.00 0.00 0.00 0.00 0.00 0.00 0.00 0.00 0.00 0.00 0.00 0.01 0.00 0.04 0.12 0.11 0.02 0.00 0.00 0.00 0.00
0.00 0.00 0.00 0.00 0.00 0.00 0.00 0.00 0.00 0.00 0.00 0.00 0.00 0.00 0.00 0.00 0.00 0.00 0.00 0.00 0.00 0.00 0.00 0.00 0.00 0.00 0.00 0.00 0.00 0.00 0.00 0.01 0.02 0.00 0.00 0.00 0.01 0.19 0.05 0.10 0.04 0.01 0.00 0.00 0.00
0.00 0.00 0.00 0.00 0.00 0.00 0.00 0.00 0.00 0.00 0.00 0.00 0.00 0.00 0.00 0.00 0.00 0.00 0.00 0.00 0.00 0.00 0.00 0.00 0.00 0.00 0.00 0.00 0.00 0.00 0.00 0.00 0.00 0.00 0.00 0.00 0.07 0.23 0.02 0.00 0.00 0.00 0.00 0.00 0.00
0.00 0.00 0.00 0.00 0.00 0.00 0.00 0.00 0.00 0.00 0.00 0.00 0.00 0.00 0.00 0.00 0.00 0.00 0.00 0.00 0.00 0.00 0.00 0.00 0.00 0.00 0.00 0.00 0.00 0.00 0.00 0.00 0.00 0.00 0.00 0.00 0.00 0.02 0.01 0.00 0.00 0.00 0.00 0.00 0.00
0.00 0.00 0.00 0.00 0.00 0.00 0.00 0.00 0.00 0.00 0.00 0.00 0.00 0.00 0.00 0.00 0.00 0.00 0.00 0.00 0.00 0.00 0.00 0.00 0.00 0.00 0.00 0.00 0.00 0.00 0.00 0.00 0.00 0.01 0.02 0.01 0.00 0.00 0.00 0.00 0.00 0.00 0.00 0.00 0.00
0.00 0.00 0.00 0.00 0.00 0.00 0.00 0.00 0.00 0.00 0.00 0.00 0.00 0.00 0.00 0.00 0.00 0.00 0.00 0.00 0.00 0.00 0.00 0.00 0.00 0.00 0.00 0.00 0.00 0.00 0.00 0.00 0.00 0.00 0.00 0.00 0.00 0.00 0.00 0.00 0.00 0.00 0.00 0.00 0.00
0.00 0.00 0.00 0.00 0.00 0.00 0.00 0.00 0.00 0.00 0.00 0.00 0.00 0.00 0.00 0.00 0.00 0.00 0.00 0.00 0.00 0.00 0.00 0.00 0.00 0.00 0.00 0.00 0.00 0.00 0.00 0.00 0.00 0.00 0.00 0.00 0.00 0.00 0.00 0.00 0.00 0.00 0.00 0.00 0.00
0.00 0.00 0.00 0.00 0.00 0.00 0.00 0.00 0.00 0.00 0.00 0.00 0.00 0.00 0.00 0.00 0.00 0.00 0.00 0.00 0.00 0.00 0.00 0.00 0.00 0.00 0.00 0.00 0.00 0.00 0.00 0.00 0.00 0.00 0.00 0.00 0.00 0.00 0.00 0.00 0.00 0.00 0.00 0.00 0.00
0.00 0.00 0.00 0.00 0.00 0.00 0.00 0.00 0.00 0.00 0.00 0.00 0.00 0.00 0.00 0.00 0.00 0.00 0.00 0.00 0.00 0.00 0.00 0.00 0.00 0.00 0.00 0.00 0.00 0.00 0.00 0.00 0.00 0.00 0.00 0.00 0.00 0.00 0.00 0.00 0.00 0.00 0.00 0.00 0.00
0.00 0.00 0.00 0.00 0.00 0.00 0.00 0.00 0.00 0.00 0.00 0.00 0.00 0.00 0.00 0.00 0.00 0.00 0.00 0.00 0.00 0.00 0.00 0.00 0.00 0.00 0.00 0.00 0.00 0.00 0.00 0.00 0.00 0.00 0.00 0.02 0.01 0.04 0.02 0.01 0.00 0.00 0.00 0.00 0.00
0.00 0.00 0.00 0.00 0.00 0.00 0.00 0.00 0.00 0.00 0.00 0.00 0.00 0.00 0.00 0.00 0.00 0.00 0.00 0.00 0.00 0.00 0.00 0.00 0.00 0.00 0.00 0.00 0.00 0.00 0.00 0.00 0.01 0.03 0.08 0.10 0.05 0.05 0.05 0.02 0.00 0.00 0.00 0.00 0.00
MSLP
1024.08 1023.92 1023.80 1023.42 1022.95 1022.44 1022.14 1021.87 1021.70 1021.39 1021.15 1020.76 1020.41 1019.90 1019.31 1018.91 1018.00 1017.59 1018.38 1018.98 1018.59 1017.98 1017.84 1016.93 1015.63 1015.36 1015.42 1015.60 1015.55 1015.74 1016.80 1017.09 1016.24 1015.22 1013.88 1013.15 1012.78 1011.99 1011.18 1010.55 1009.92 1009.20 1009.14 1009.13 1009.96
1024.26 1024.20 1023.72 1023.33 1023.28 1022.54 1022.23 1021.88 1021.73 1021.58 1021.22 1021.10 1020.53 1019.92 1019.44 1019.12 1018.46 1017.96 1018.84 1018.64 1018.42 1018.26 1017.95 1017.60 1016.66 1015.92 1016.02 1016.08 1016.10 1016.42 1017.28 1016.69 1015.77 1015.17 1014.60 1013.83 1013.77 1012.80 1012.21 1011.22 1011.21 1010.42 1010.11 1010.08 1011.18
1024.51 1024.16 1023.71 1023.14 1022.89 1022.74 1022.12 1021.71 1021.45 1021.40 1021.22 1020.95 1020.24 1019.68 1019.25 1019.18 1018.59 1019.37 1018.52 1018.23 1017.74 1017.68 1017.89 1017.87 1017.22 1016.85 1016.83 1016.73 1017.00 1017.18 1017.19 1016.47 1015.67 1015.44 1015.52 1014.82 1014.09 1013.58 1012.82 1012.27 1011.88 1012.04 1011.23 1010.86 1010.76
1024.63 1024.30 1023.91 1023.31 1022.82 1022.24 1021.97 1021.50 1021.22 1021.12 1021.05 1020.65 1020.22 1019.52 1018.88 1019.00 1020.26 1019.53 1018.71 1018.32 1017.76 1017.59 1017.67 1017.62 1017.49 1017.74 1018.18 1018.19 1018.01 1017.95 1017.30 1017.41 1016.75 1016.12 1015.83 1015.16 1014.61 1014.23 1013.75 1013.06 1011.89 1012.41 1011.78 1011.28 1011.24
1024.78 1024.46 1023.99 1023.42 1022.99 1022.34 1021.97 1021.53 1021.18 1020.91 1020.85 1020.62 1020.15 1019.30 1018.83 1019.72 1020.21 1019.46 1018.90 1018.38 1018.12 1018.01 1018.34 1018.36 1018.59 1018.95 1019.33 1019.13 1018.64 1018.38 1018.20 1017.75 1017.39 1016.80 1016.30 1015.46 1014.82 1014.38 1013.76 1013.52 1012.29 1011.30 1012.26 1011.99 1011.52
1024.76 1024.33 1023.97 1023.67 1022.95 1022.46 1022.02 1021.53 1021.07 1020.75 1020.47 1020.41 1020.07 1019.48 1019.30 1020.02 1020.07 1019.90 1019.39 1019.06 1019.02 1018.88 1018.98 1019.04 1019.54 1019.51 1019.72 1019.74 1019.76 1019.32 1018.98 1018.39 1017.52 1016.95 1016.51 1016.10 1014.83 1014.48 1013.90 1013.56 1012.92 1012.19 1010.74 1012.17 1011.99
1024.74 1024.17 1023.85 1023.55 1022.91 1022.45 1022.17 1021.69 1021.15 1020.72 1020.52 1020.53 1020.11 1019.86 1019.93 1020.62 1020.30 1020.02 1019.63 1019.52 1019.23 1019.18 1019.19 1019.21 1019.49 1019.86 1019.98 1020.16 1019.86 1019.46 1019.53 1018.89 1018.24 1017.73 1017.34 1016.61 1015.45 1015.37 1015.24 1014.31 1013.64 1013.15 1012.25 1011.05 1011.91
1024.78 1024.31 1023.78 1023.24 1022.83 1022.36 1021.91 1021.51 1021.19 1020.77 1020.46 1020.30 1020.33 1020.12 1020.66 1020.30 1020.32 1020.23 1019.90 1019.64 1019.09 1018.99 1019.18 1019.10 1019.33 1019.93 1020.40 1020.46 1020.30 1020.24 1020.19 1020.50 1019.67 1018.95 1018.16 1017.79 1017.33 1016.58 1015.78 1015.46 1014.97 1014.28 1013.46 1012.47 1011.19
1024.74 1024.36 1023.77 1023.24 1022.77 1022.40 1021.83 1021.48 1021.07 1020.62 1020.46 1020.33 1020.31 1020.28 1020.87 1020.35 1020.36 1020.22 1019.90 1019.86 1019.53 1019.25 1019.03 1019.10 1019.78 1020.65 1021.11 1021.50 1021.73 1021.47 1021.59 1021.10 1020.27 1019.67 1019.57 1019.15 1018.38 1017.79 1016.92 1016.53 1015.87 1015.18 1014.51 1013.61 1012.42
1024.79 1024.36 1023.82 1023.38 1022.89 1022.49 1021.95 1021.41 1020.87 1020.41 1020.11 1020.26 1020.35 1020.80 1020.89 1020.92 1020.68 1020.61 1020.34 1020.37 1020.48 1020.26 1019.93 1020.42 1021.29 1022.05 1022.58 1022.78 1023.18 1022.79 1022.49 1021.91 1021.40 1020.79 1019.54 1019.84 1018.86 1018.74 1017.93 1017.31 1016.74 1016.06 1015.27 1014.43 1013.44
1024.75 1024.32 1023.73 1023.42 1022.85 1022.48 1022.05 1021.44 1021.71 1021.55 1020.98 1021.14 1021.34 1021.16 1021.01 1020.85 1020.84 1021.06 1020.90 1020.96 1021.34 1021.89 1022.33 1022.26 1022.86 1023.49 1023.31 1023.15 1022.98 1022.74 1022.65 1022.38 1021.82 1021.53 1021.21 1020.68 1019.40 1018.86 1018.36 1017.81 1017.26 1016.58 1015.80 1014.96 1014.12
1024.58 1024.23 1023.81 1023.37 1022.71 1022.30 1022.59 1023.01 1022.94 1022.71 1022.21 1021.52 1021.37 1021.19 1020.91 1020.74 1021.11 1021.35 1021.24 1021.92 1022.53 1023.14 1023.20 1023.44 1023.87 1023.79 1023.35 1023.20 1023.09 1022.92 1022.84 1022.61 1022.04 1021.95 1021.73 1021.25 1020.12 1018.87 1018.71 1018.36 1018.03 1017.63 1016.83 1016.27 1015.21
1024.43 1024.31 1023.93 1023.51 1022.84 1022.69 1023.12 1023.53 1022.96 1022.52 1022.45 1022.08 1021.52 1021.19 1021.02 1020.98 1021.29 1021.69 1021.86 1022.44 1023.03 1023.73 1024.04 1024.47 1024.77 1024.15 1023.94 1023.91 1023.90 1023.53 1023.50 1023.11 1022.67 1022.26 1022.05 1021.49 1020.70 1019.36 1019.01 1018.79 1018.58 1018.06 1017.60 1017.03 1016.43
1024.51 1024.32 1024.02 1023.56 1023.38 1023.66 1023.61 1023.33 1023.04 1022.87 1023.38 1022.82 1021.84 1021.23 1021.08 1021.12 1021.85 1021.79 1021.98 1022.69 1023.49 1024.45 1024.82 1025.19 1024.94 1024.71 1024.59 1024.62 1024.62 1024.14 1023.79 1023.61 1023.20 1023.20 1023.10 1022.74 1021.76 1020.47 1019.71 1019.79 1019.32 1018.99 1018.52 1018.04 1017.14
1024.64 1024.31 1024.06 1024.12 1024.42 1024.15 1024.00 1023.39 1023.08 1023.19 1023.94 1023.15 1021.75 1021.00 1021.10 1021.56 1022.16 1022.47 1022.31 1022.90 1024.16 1025.10 1025.88 1026.18 1025.79 1025.48 1025.25 1025.48 1025.00 1024.94 1024.51 1024.23 1023.99 1023.87 1023.99 1023.26 1022.99 1021.68 1021.09 1021.14 1020.39 1019.60 1019.01 1018.70 1018.06
1024.61 1024.25 1024.19 1024.27 1024.48 1024.05 1023.72 1023.38 1023.50 1024.31 1024.17 1022.82 1021.89 1021.51 1021.74 1022.05 1022.65 1023.01 1023.37 1023.90 1024.87 1025.73 1026.39 1026.73 1026.13 1026.27 1026.27 1025.76 1025.64 1025.50 1025.02 1024.59 1024.61 1024.86 1024.97 1024.46 1024.25 1023.51 1023.25 1022.96 1021.58 1019.93 1019.09 1018.82 1018.47
1024.55 1024.27 1024.12 1024.25 1024.62 1024.01 1023.90 1024.23 1025.20 1024.97 1024.17 1023.06 1022.37 1022.15 1022.45 1022.95 1023.48 1023.85 1025.02 1025.75 1026.48 1027.45 1028.20 1027.74 1027.35 1026.92 1026.51 1026.40 1026.10 1026.11 1026.48 1026.91 1026.85 1026.59 1025.99 1024.86 1024.45 1024.97 1024.20 1023.44 1022.49 1020.50 1019.64 1019.09 1018.94
1024.38 1024.27 1024.35 1024.19 1024.20 1023.99 1024.42 1025.32 1025.51 1025.09 1023.97 1022.81 1022.56 1022.69 1023.08 1023.51 1024.13 1024.53 1025.61 1027.09 1027.62 1028.18 1029.24 1029.39 1028.36 1028.08 1027.77 1027.79 1027.80 1027.59 1028.06 1028.95 1029.24 1028.39 1026.85 1025.60 1024.97 1025.24 1023.84 1023.05 1022.45 1020.89 1020.48 1020.12 1020.39
1024.29 1024.75 1024.68 1024.33 1024.15 1024.20 1024.85 1025.90 1025.73 1024.71 1023.61 1023.08 1022.93 1023.23 1023.85 1024.23 1024.66 1025.30 1025.95 1027.01 1027.98 1028.51 1029.53 1029.78 1029.54 1028.68 1028.41 1028.08 1028.35 1028.54 1029.27 1029.61 1029.93 1029.26 1028.40 1026.34 1026.12 1025.13 1023.54 1022.45 1021.98 1021.30 1021.11 1021.09 1020.57
1025.04 1025.06 1024.73 1024.01 1024.12 1024.59 1025.42 1025.83 1025.16 1024.00 1023.56 1023.36 1023.57 1023.79 1024.38 1025.10 1025.50 1025.80 1026.22 1027.04 1027.92 1028.39 1028.75 1029.97 1030.09 1029.42 1028.90 1028.65 1028.92 1029.47 1030.12 1030.51 1031.20 1031.42 1029.89 1027.50 1025.94 1024.48 1023.61 1022.80 1022.17 1021.53 1021.28 1021.22 1021.07
1025.17 1025.47 1024.56 1024.23 1024.49 1025.61 1026.50 1025.77 1024.64 1024.07 1023.55 1024.00 1023.85 1024.39 1024.91 1025.45 1025.76 1026.12 1026.52 1027.18 1027.33 1028.17 1028.76 1029.91 1030.86 1030.57 1030.01 1029.93 1030.27 1030.57 1031.58 1032.60 1033.06 1032.70 1031.63 1029.74 1026.73 1024.31 1023.89 1023.17 1022.71 1022.23 1021.83 1021.28 1020.84
1025.18 1025.56 1024.63 1024.43 1025.80 1026.55 1026.31 1025.09 1024.26 1024.12 1023.80 1024.05 1024.43 1024.73 1025.37 1025.89 1026.33 1026.43 1026.52 1026.54 1026.82 1027.71 1028.97 1029.98 1031.35 1031.69 1031.27 1030.74 1030.61 1031.07 1032.12 1032.94 1034.11 1033.71 1032.67 1030.82 1026.79 1024.80 1023.67 1022.74 1022.78 1022.61 1022.21 1021.68 1021.36
1025.60 1025.85 1025.00 1025.11 1026.43 1026.86 1025.70 1024.94 1024.22 1024.05 1023.99 1024.36 1024.69 1025.18 1025.60 1026.19 1026.82 1026.95 1026.88 1026.99 1027.13 1027.76 1028.69 1029.91 1031.66 1032.52 1032.26 1031.87 1031.46 1031.94 1032.17 1032.58 1033.27 1033.06 1032.03 1030.44 1026.76 1024.86 1023.90 1023.32 1022.76 1022.57 1022.33 1022.01 1021.53
1025.84 1026.54 1026.47 1026.49 1026.75 1026.08 1025.76 1025.06 1024.56 1024.30 1024.29 1024.31 1024.96 1025.32 1026.23 1026.63 1026.89 1027.27 1027.47 1027.31 1027.52 1027.96 1028.27 1029.46 1031.54 1032.66 1033.12 1032.63 1032.56 1032.82 1032.19 1032.00 1032.54 1032.35 1030.36 1028.30 1025.79 1024.50 1023.49 1023.14 1022.70 1022.67 1022.35 1022.01 1021.60
1025.97 1026.62 1026.48 1027.17 1026.94 1026.23 1025.66 1025.15 1024.61 1024.63 1024.59 1024.69 1025.22 1025.61 1026.10 1027.07 1027.46 1027.61 1027.80 1027.94 1027.98 1028.13 1028.82 1029.97 1031.64 1032.34 1032.57 1032.04 1031.75 1031.33 1030.73 1030.03 1030.59 1029.27 1029.19 1025.91 1025.20 1023.89 1023.25 1022.89 1022.69 1022.52 1021.98 1021.39 1020.95
1025.82 1026.16 1026.27 1026.57 1026.30 1026.08 1025.51 1025.18 1024.56 1024.55 1024.79 1025.26 1025.71 1025.93 1026.45 1027.18 1027.62 1028.35 1028.50 1028.63 1028.70 1028.96 1029.53 1030.49 1031.41 1032.00 1031.78 1031.06 1030.69 1029.98 1028.77 1027.94 1027.27 1026.90 1026.36 1025.19 1024.60 1024.22 1023.48 1022.72 1022.44 1021.85 1021.53 1021.19 1020.71
1025.42 1025.42 1025.88 1026.57 1026.43 1026.25 1025.58 1024.98 1024.42 1024.06 1024.58 1024.78 1025.52 1026.30 1026.94 1027.55 1027.97 1028.22 1028.50 1028.64 1028.82 1029.26 1029.88 1030.84 1031.82 1032.38 1031.92 1030.85 1029.86 1028.69 1027.05 1026.09 1025.69 1025.66 1025.72 1025.07 1024.63 1024.23 1023.37 1022.64 1022.31 1021.89 1021.69 1021.17 1020.55
Thickness
5592 5596 5594 5597 5601 5607 5608 5612 5614 5618 5621 5625 5631 5638 5644 5648 5657 5660 5652 5652 5657 5664 5667 5676 5687 5692 5692 5689 5693 5692 5658 5655 5673 5687 5700 5715 5707 5722 5731 5732 5746 5759 5761 5768 5774
5591 5592 5595 5598 5598 5607 5609 5613 5615 5615 5620 5623 5630 5638 5644 5646 5652 5654 5650 5654 5657 5660 5664 5666 5673 5681 5676 5679 5678 5670 5649 5664 5682 5691 5694 5706 5701 5710 5714 5715 5723 5738 5750 5759 5753
5588 5593 5595 5602 5604 5605 5611 5616 5618 5617 5619 5622 5631 5639 5643 5644 5649 5638 5650 5654 5660 5662 5662 5662 5667 5671 5670 5670 5667 5662 5654 5672 5683 5684 5682 5688 5692 5703 5709 5703 5716 5714 5730 5740 5751
5585 5591 5593 5600 5605 5612 5613 5617 5619 5619 5619 5623 5629 5637 5644 5643 5618 5635 5645 5649 5654 5658 5659 5660 5660 5653 5646 5645 5654 5652 5665 5662 5667 5673 5673 5679 5692 5693 5701 5707 5717 5717 5725 5733 5736
5583 5587 5591 5597 5602 5608 5611 5616 5619 5621 5620 5622 5627 5636 5640 5627 5623 5634 5639 5644 5647 5649 5645 5645 5641 5637 5632 5636 5642 5648 5647 5652 5654 5661 5664 5675 5680 5688 5694 5700 5715 5726 5715 5719 5725
5581 5587 5590 5594 5601 5606 5609 5612 5617 5619 5621 5621 5625 5630 5632 5616 5626 5628 5632 5635 5635 5636 5635 5634 5629 5632 5629 5628 5627 5632 5633 5636 5643 5648 5652 5654 5675 5681 5692 5689 5694 5707 5722 5711 5713
5580 5587 5590 5593 5601 5604 5607 5611 5615 5619 5619 5618 5622 5625 5620 5612 5621 5623 5625 5626 5629 5630 5627 5630 5627 5621 5621 5615 5625 5627 5621 5624 5629 5631 5629 5635 5654 5658 5661 5668 5675 5681 5696 5709 5706
5578 5583 5589 5595 5599 5603 5606 5610 5612 5615 5617 5619 5618 5620 5606 5616 5615 5617 5620 5621 5627 5629 5626 5626 5624 5616 5612 5612 5611 5609 5605 5590 5607 5609 5615 5618 5612 5634 5642 5646 5650 5660 5671 5685 5700
5577 5580 5586 5591 5597 5600 5605 5607 5610 5613 5614 5615 5615 5613 5600 5612 5609 5614 5618 5615 5618 5619 5620 5619 5611 5598 5593 5587 5578 5582 5572 5578 5582 5587 5583 5587 5592 5604 5616 5621 5633 5636 5644 5663 5682
5572 5577 5582 5586 5591 5596 5601 5605 5609 5614 5614 5611 5611 5601 5602 5599 5605 5606 5609 5607 5602 5602 5603 5598 5584 5572 5564 5557 5547 5556 5555 5559 5549 5555 5564 5551 5566 5574 5586 5594 5599 5608 5621 5638 5655
5570 5574 5579 5582 5588 5591 5597 5601 5598 5597 5604 5598 5596 5596 5599 5603 5604 5597 5599 5596 5590 5583 5570 5574 5557 5553 5556 5557 5555 5549 5542 5531 5531 5527 5521 5526 5541 5555 5560 5566 5573 5586 5595 5612 5630
5568 5571 5576 5581 5587 5591 5590 5586 5587 5591 5589 5599 5598 5597 5601 5602 5591 5590 5594 5580 5573 5563 5566 5550 5539 5551 5552 5548 5540 5533 5523 5513 5517 5514 5512 5508 5521 5544 5546 5549 5550 5558 5570 5578 5596
5568 5568 5572 5576 5584 5586 5583 5580 5586 5589 5582 5590 5595 5594 5594 5595 5586 5580 5581 5573 5565 5556 5552 5536 5541 5544 5536 5526 5516 5511 5500 5498 5500 5502 5503 5498 5505 5528 5535 5533 5531 5537 5544 5554 5570
5565 5565 5568 5573 5575 5574 5577 5581 5582 5583 5550 5577 5581 5586 5588 5588 5575 5582 5578 5567 5556 5545 5542 5536 5535 5529 5520 5507 5500 5489 5494 5490 5489 5477 5461 5484 5464 5509 5513 5500 5504 5511 5518 5537 5555
5559 5563 5565 5565 5564 5567 5571 5576 5579 5576 5516 5573 5579 5589 5584 5575 5570 5566 5570 5560 5543 5537 5523 5512 5515 5510 5503 5493 5491 5480 5481 5479 5477 5468 5455 5472 5447 5481 5487 5478 5489 5497 5510 5516 5532
5556 5560 5561 5560 5563 5566 5568 5573 5572 5527 5505 5568 5575 5573 5569 5568 5560 5558 5552 5547 5538 5527 5514 5506 5509 5494 5487 5486 5476 5469 5468 5467 5464 5457 5430 5468 5460 5452 5458 5452 5471 5488 5499 5508 5518
5552 5557 5560 5558 5554 5562 5563 5558 5526 5510 5562 5565 5564 5566 5560 5553 5549 5547 5529 5515 5498 5474 5477 5485 5486 5484 5482 5467 5463 5453 5432 5388 5406 5399 5417 5475 5469 5440 5442 5448 5451 5479 5488 5495 5500
5547 5551 5552 5554 5554 5557 5554 5534 5502 5534 5553 5569 5563 5559 5549 5547 5540 5539 5525 5488 5500 5485 5448 5448 5442 5463 5461 5448 5438 5438 5430 5385 5398 5394 5434 5470 5463 5434 5450 5455 5454 5471 5477 5482 5477
5542 5543 5544 5549 5550 5551 5538 5495 5500 5541 5561 5556 5555 5548 5540 5537 5531 5524 5515 5504 5491 5484 5448 5431 5446 5459 5452 5446 5433 5428 5391 5418 5396 5419 5410 5455 5431 5426 5454 5462 5465 5465 5466 5466 5470
5531 5533 5537 5545 5545 5541 5518 5520 5547 5554 5552 5550 5540 5539 5527 5524 5518 5513 5508 5502 5488 5484 5468 5460 5433 5454 5447 5441 5427 5414 5411 5375 5366 5351 5353 5418 5440 5435 5445 5445 5452 5459 5460 5458 5459
5524 5524 5532 5536 5538 5519 5497 5507 5544 5544 5544 5535 5534 5527 5521 5512 5511 5505 5501 5494 5492 5480 5470 5448 5409 5430 5431 5419 5403 5389 5375 5364 5363 5373 5373 5368 5402 5442 5431 5437 5436 5446 5452 5453 5458
5517 5511 5527 5529 5502 5503 5490 5539 5542 5535 5536 5531 5526 5523 5510 5506 5501 5499 5495 5492 5490 5479 5458 5447 5390 5401 5417 5418 5410 5400 5377 5375 5320 5321 5340 5361 5388 5430 5432 5438 5435 5434 5439 5446 5448
5507 5505 5517 5517 5478 5488 5517 5531 5532 5532 5528 5522 5519 5514 5510 5500 5487 5490 5489 5482 5476 5469 5455 5440 5389 5348 5396 5396 5389 5361 5359 5348 5331 5338 5356 5317 5377 5424 5426 5422 5429 5425 5426 5432 5437
5496 5490 5491 5495 5493 5510 5515 5518 5518 5520 5518 5518 5509 5506 5496 5491 5488 5478 5473 5477 5467 5462 5463 5442 5402 5379 5359 5360 5352 5337 5335 5329 5333 5334 5351 5374 5388 5409 5417 5417 5422 5419 5420 5423 5424
5486 5477 5490 5464 5481 5502 5510 5513 5510 5504 5509 5508 5501 5498 5490 5475 5471 5469 5467 5457 5455 5456 5446 5424 5380 5374 5370 5386 5387 5383 5380 5387 5342 5367 5348 5399 5392 5404 5412 5409 5413 5415 5418 5427 5427
5482 5481 5484 5488 5497 5500 5497 5504 5505 5503 5497 5491 5485 5491 5481 5464 5461 5440 5448 5446 5440 5438 5429 5412 5384 5406 5383 5403 5395 5392 5397 5396 5400 5402 5404 5398 5398 5393 5400 5404 5410 5416 5419 5421 5423
5480 5485 5481 5475 5483 5477 5478 5496 5503 5507 5500 5493 5483 5474 5471 5456 5455 5451 5444 5440 5436 5427 5419 5409 5380 5370 5364 5398 5393 5361 5398 5417 5414 5410 5392 5396 5395 5392 5400 5408 5407 5410 5412 5417 5416